| time (UTC) | temp C | wind direction | speed KPH | gust KPH | rain 1hr cm | rain 24hr cm | rain mn cm | humidity % | barometer mb |
| 20260503020213 | -1 | 0 | 0.0 | 0.0 | 0.00 | 0.00 | 0.00 | 82 | 1009.2 |
| 20260503015614 | -1 | 0 | 0.0 | 0.0 | 0.00 | 0.00 | 0.00 | 82 | 1009.2 |
| 20260503014717 | 0 | 0 | 0.0 | 0.0 | 0.00 | 0.00 | 0.00 | 82 | 1009.1 |
| 20260503013603 | 0 | 0 | 0.0 | 0.0 | 0.00 | 0.00 | 0.00 | 81 | 1009.1 |
| 20260503012703 | 0 | 0 | 0.0 | 0.0 | 0.00 | 0.00 | 0.00 | 81 | 1009.0 |
| 20260503011803 | 0 | 225 | 0.0 | 1.6 | 0.00 | 0.00 | 0.00 | 81 | 1009.2 |
| 20260503011116 | 0 | 225 | 0.0 | 1.6 | 0.00 | 0.00 | 0.00 | 81 | 1009.2 |
| 20260503010214 | 0 | 0 | 0.0 | 0.0 | 0.00 | 0.00 | 0.00 | 80 | 1009.1 |
| 20260503005615 | 0 | 0 | 0.0 | 0.0 | 0.00 | 0.00 | 0.00 | 80 | 1009.2 |
| 20260503004712 | 1 | 0 | 0.0 | 0.0 | 0.00 | 0.00 | 0.00 | 80 | 1009.1 |
| 20260503003815 | 1 | 50 | 0.0 | 4.8 | 0.00 | 0.00 | 0.00 | 80 | 1009.1 |
| 20260503002704 | 1 | 67 | 1.6 | 1.6 | 0.00 | 0.00 | 0.00 | 80 | 1008.9 |
| 20260503002014 | 1 | 0 | 0.0 | 0.0 | 0.00 | 0.00 | 0.00 | 80 | 1008.9 |
| 20260503000903 | 2 | 0 | 0.0 | 0.0 | 0.00 | 0.00 | 0.00 | 79 | 1008.9 |
| 20260503000214 | 2 | 0 | 0.0 | 0.0 | 0.00 | 0.00 | 0.00 | 79 | 1008.9 |
| 20260502235616 | 2 | 0 | 0.0 | 0.0 | 0.00 | 0.00 | 0.00 | 79 | 1009.0 |
| 20260502234713 | 2 | 0 | 0.0 | 0.0 | 0.00 | 0.00 | 0.00 | 79 | 1009.1 |
| 20260502233603 | 2 | 0 | 0.0 | 0.0 | 0.00 | 0.00 | 0.00 | 78 | 1009.2 |
| 20260502232913 | 2 | 0 | 0.0 | 0.0 | 0.00 | 0.00 | 0.00 | 78 | 1009.2 |
| 20260502231803 | 3 | 0 | 0.0 | 0.0 | 0.00 | 0.00 | 0.00 | 78 | 1009.3 |
| 20260502231112 | 3 | 0 | 0.0 | 0.0 | 0.00 | 0.00 | 0.00 | 77 | 1009.3 |
| 20260502230003 | 3 | 0 | 0.0 | 0.0 | 0.00 | 0.00 | 0.00 | 77 | 1009.4 |
| 20260502225616 | 3 | 0 | 0.0 | 0.0 | 0.00 | 0.00 | 0.00 | 77 | 1009.3 |
| 20260502224714 | 3 | 0 | 0.0 | 0.0 | 0.00 | 0.00 | 0.00 | 76 | 1009.5 |
| 20260502223603 | 3 | 0 | 0.0 | 0.0 | 0.00 | 0.00 | 0.00 | 76 | 1009.4 |
| 20260502222913 | 3 | 0 | 0.0 | 0.0 | 0.00 | 0.00 | 0.00 | 76 | 1009.4 |
| 20260502222016 | 3 | 0 | 0.0 | 0.0 | 0.00 | 0.00 | 0.00 | 75 | 1009.4 |
| 20260502221113 | 3 | 0 | 0.0 | 0.0 | 0.00 | 0.00 | 0.00 | 75 | 1009.4 |
| 20260502220215 | 4 | 0 | 0.0 | 0.0 | 0.00 | 0.00 | 0.00 | 74 | 1009.3 |
| 20260502215617 | 4 | 0 | 0.0 | 0.0 | 0.00 | 0.00 | 0.00 | 74 | 1009.4 |
| 20260502214503 | 4 | 0 | 0.0 | 0.0 | 0.00 | 0.00 | 0.00 | 74 | 1009.2 |
| 20260502212703 | 5 | 0 | 0.0 | 0.0 | 0.00 | 0.00 | 0.00 | 73 | 1009.3 |
| 20260502211803 | 5 | 290 | 0.0 | 3.2 | 0.00 | 0.00 | 0.00 | 74 | 1009.3 |
| 20260502210903 | 5 | 280 | 3.2 | 3.2 | 0.00 | 0.00 | 0.00 | 74 | 1009.3 |
| 20260502210216 | 5 | 271 | 3.2 | 4.8 | 0.00 | 0.00 | 0.00 | 74 | 1009.4 |
| 20260502205403 | 5 | 289 | 3.2 | 3.2 | 0.00 | 0.00 | 0.00 | 74 | 1009.2 |
| 20260502204503 | 5 | 292 | 3.2 | 3.2 | 0.00 | 0.00 | 0.00 | 73 | 1009.3 |
| 20260502203603 | 5 | 278 | 0.0 | 3.2 | 0.00 | 0.00 | 0.00 | 73 | 1009.2 |
| 20260502202704 | 6 | 270 | 0.0 | 6.4 | 0.00 | 0.00 | 0.00 | 72 | 1009.2 |
| 20260502201803 | 6 | 289 | 0.0 | 6.4 | 0.00 | 0.00 | 0.00 | 71 | 1009.3 |
| 20260502200903 | 6 | 300 | 0.0 | 12.9 | 0.00 | 0.00 | 0.00 | 71 | 1009.3 |
| 20260502200003 | 6 | 315 | 12.9 | 12.9 | 0.00 | 0.00 | 0.00 | 72 | 1009.4 |
| 20260502195403 | 6 | 336 | 3.2 | 6.4 | 0.00 | 0.00 | 0.00 | 71 | 1009.4 |
| 20260502194504 | 6 | 352 | 6.4 | 8.0 | 0.00 | 0.00 | 0.00 | 71 | 1009.5 |
| 20260502193813 | 6 | 19 | 6.4 | 6.4 | 0.00 | 0.00 | 0.00 | 71 | 1009.4 |
| 20260502192703 | 6 | 333 | 3.2 | 4.8 | 0.00 | 0.00 | 0.00 | 70 | 1009.4 |
| 20260502192018 | 6 | 310 | 3.2 | 4.8 | 0.00 | 0.00 | 0.00 | 71 | 1009.5 |
| 20260502191115 | 6 | 309 | 1.6 | 4.8 | 0.00 | 0.00 | 0.00 | 70 | 1009.3 |
| 20260502190217 | 6 | 349 | 3.2 | 6.4 | 0.00 | 0.00 | 0.00 | 69 | 1009.4 |
| 20260502185403 | 6 | 347 | 0.0 | 3.2 | 0.00 | 0.00 | 0.00 | 69 | 1009.3 |
| 20260502184503 | 6 | 299 | 3.2 | 6.4 | 0.00 | 0.00 | 0.00 | 69 | 1009.2 |
| 20260502183603 | 7 | 308 | 6.4 | 6.4 | 0.00 | 0.00 | 0.00 | 69 | 1009.3 |
| 20260502182013 | 7 | 284 | 0.0 | 8.0 | 0.00 | 0.00 | 0.00 | 68 | 1009.3 |
| 20260502181116 | 7 | 320 | 8.0 | 8.0 | 0.00 | 0.00 | 0.00 | 69 | 1009.1 |
| 20260502180213 | 7 | 320 | 4.8 | 6.4 | 0.00 | 0.00 | 0.00 | 69 | 1009.1 |
| 20260502170214 | 8 | 289 | 8.0 | 19.3 | 0.00 | 0.00 | 0.00 | 65 | 1009.3 |
| 20260502163815 | 9 | 282 | 8.0 | 16.1 | 0.00 | 0.00 | 0.00 | 64 | 1009.2 |
| 20260502162917 | 9 | 273 | 6.4 | 11.3 | 0.00 | 0.00 | 0.00 | 64 | 1009.2 |
| 20260502161803 | 9 | 282 | 6.4 | 14.5 | 0.00 | 0.00 | 0.00 | 64 | 1009.3 |
| 20260502160903 | 9 | 275 | 11.3 | 12.9 | 0.00 | 0.00 | 0.00 | 64 | 1009.4 |
| 20260502160214 | 9 | 276 | 8.0 | 14.5 | 0.00 | 0.00 | 0.00 | 65 | 1009.5 |
| 20260502151803 | 10 | 269 | 9.7 | 12.9 | 0.00 | 0.00 | 0.00 | 62 | 1009.5 |
| 20260502150903 | 10 | 271 | 12.9 | 12.9 | 0.00 | 0.00 | 0.00 | 61 | 1009.5 |
| 20260502150215 | 10 | 285 | 11.3 | 19.3 | 0.00 | 0.00 | 0.00 | 60 | 1009.7 |
| 20260502130216 | 11 | 290 | 0.0 | 14.5 | 0.00 | 0.00 | 0.00 | 58 | 1010.0 |
| 20260502123603 | 11 | 285 | 8.0 | 8.0 | 0.00 | 0.00 | 0.00 | 58 | 1010.3 |
| 20260502122915 | 11 | 272 | 8.0 | 12.9 | 0.00 | 0.00 | 0.00 | 59 | 1010.3 |
| 20260502121803 | 10 | 271 | 9.7 | 17.7 | 0.00 | 0.00 | 0.00 | 58 | 1010.4 |
| 20260502121114 | 10 | 291 | 6.4 | 6.4 | 0.00 | 0.00 | 0.00 | 58 | 1010.6 |
| 20260502115403 | 10 | 246 | 1.6 | 6.4 | 0.00 | 0.00 | 0.00 | 56 | 1010.7 |
| 20260502114716 | 10 | 248 | 4.8 | 6.4 | 0.00 | 0.00 | 0.00 | 55 | 1010.6 |
| 20260502113813 | 10 | 202 | 0.0 | 6.4 | 0.00 | 0.00 | 0.00 | 55 | 1010.6 |
| 20260502112915 | 11 | 226 | 4.8 | 4.8 | 0.00 | 0.00 | 0.00 | 55 | 1010.6 |
| 20260502111803 | 11 | 269 | 3.2 | 14.5 | 0.00 | 0.00 | 0.00 | 55 | 1010.7 |
| 20260502110903 | 11 | 254 | 6.4 | 14.5 | 0.00 | 0.00 | 0.00 | 55 | 1010.7 |
| 20260502110217 | 11 | 265 | 1.6 | 14.5 | 0.00 | 0.00 | 0.00 | 55 | 1010.8 |
| 20260502105614 | 10 | 275 | 0.0 | 14.5 | 0.00 | 0.00 | 0.00 | 57 | 1010.8 |
| 20260502104503 | 10 | 286 | 6.4 | 19.3 | 0.00 | 0.00 | 0.00 | 57 | 1010.9 |
| 20260502103603 | 10 | 286 | 14.5 | 14.5 | 0.00 | 0.00 | 0.00 | 57 | 1010.8 |
| 20260502102916 | 10 | 293 | 8.0 | 17.7 | 0.00 | 0.00 | 0.00 | 59 | 1011.1 |
| 20260502101803 | 10 | 302 | 3.2 | 14.5 | 0.00 | 0.00 | 0.00 | 61 | 1010.9 |
| 20260502101116 | 9 | 278 | 4.8 | 14.5 | 0.00 | 0.00 | 0.00 | 64 | 1011.2 |
| 20260502090903 | 10 | 281 | 3.2 | 17.7 | 0.00 | 0.00 | 0.00 | 58 | 1011.2 |
| 20260502071118 | 6 | 294 | 4.8 | 4.8 | 0.00 | 0.00 | 0.00 | 60 | 1011.8 |
| 20260502070215 | 6 | 247 | 0.0 | 1.6 | 0.00 | 0.00 | 0.00 | 61 | 1011.9 |
| 20260502065616 | 6 | 247 | 0.0 | 1.6 | 0.00 | 0.00 | 0.00 | 61 | 1012.0 |
| 20260502064714 | 6 | 112 | 0.0 | 1.6 | 0.00 | 0.00 | 0.00 | 63 | 1012.0 |
| 20260502063816 | 6 | 0 | 0.0 | 0.0 | 0.00 | 0.00 | 0.00 | 64 | 1012.0 |
| 20260502062705 | 5 | 202 | 0.0 | 1.6 | 0.00 | 0.00 | 0.00 | 65 | 1011.8 |
| 20260502061803 | 5 | 202 | 1.6 | 1.6 | 0.00 | 0.00 | 0.00 | 66 | 1012.0 |
| 20260502061113 | 5 | 0 | 0.0 | 0.0 | 0.00 | 0.00 | 0.00 | 67 | 1012.1 |
| 20260502060215 | 5 | 0 | 0.0 | 0.0 | 0.00 | 0.00 | 0.00 | 70 | 1011.9 |
| 20260502055617 | 4 | 292 | 0.0 | 1.6 | 0.00 | 0.00 | 0.00 | 71 | 1012.0 |
| 20260502054714 | 4 | 0 | 0.0 | 0.0 | 0.00 | 0.00 | 0.00 | 72 | 1012.1 |
| 20260502053603 | 3 | 231 | 0.0 | 1.6 | 0.00 | 0.00 | 0.00 | 74 | 1012.2 |
| 20260502052914 | 3 | 315 | 0.0 | 1.6 | 0.00 | 0.00 | 0.00 | 75 | 1012.2 |
| 20260502051803 | 2 | 0 | 0.0 | 0.0 | 0.00 | 0.00 | 0.00 | 76 | 1012.3 |
| 20260502051114 | 2 | 0 | 0.0 | 0.0 | 0.00 | 0.00 | 0.00 | 76 | 1012.3 |
| 20260502050003 | 2 | 202 | 0.0 | 3.2 | 0.00 | 0.00 | 0.00 | 77 | 1012.4 |
| 20260502045403 | 2 | 202 | 3.2 | 3.2 | 0.00 | 0.00 | 0.00 | 77 | 1012.5 |
| 20260502044504 | 1 | 0 | 0.0 | 0.0 | 0.00 | 0.00 | 0.00 | 77 | 1012.6 |
| 20260502043817 | 1 | 0 | 0.0 | 0.0 | 0.00 | 0.00 | 0.00 | 77 | 1012.7 |
| 20260502042915 | 0 | 0 | 0.0 | 0.0 | 0.00 | 0.00 | 0.00 | 77 | 1012.7 |
| 20260502042017 | 0 | 247 | 0.0 | 3.2 | 0.00 | 0.00 | 0.00 | 76 | 1012.7 |
| 20260502040903 | 0 | 0 | 0.0 | 0.0 | 0.00 | 0.00 | 0.00 | 76 | 1012.7 |
| 20260502040217 | 0 | 0 | 0.0 | 0.0 | 0.00 | 0.00 | 0.00 | 76 | 1012.7 |
| 20260502035613 | 0 | 45 | 0.0 | 1.6 | 0.00 | 0.00 | 0.00 | 75 | 1012.7 |
| 20260502034716 | 0 | 14 | 1.6 | 1.6 | 0.00 | 0.00 | 0.00 | 75 | 1012.7 |
| 20260502033813 | 0 | 0 | 0.0 | 0.0 | 0.00 | 0.00 | 0.00 | 74 | 1012.7 |
| 20260502032915 | 0 | 0 | 0.0 | 0.0 | 0.00 | 0.00 | 0.00 | 75 | 1012.7 |
| 20260502031803 | 0 | 11 | 0.0 | 3.2 | 0.00 | 0.00 | 0.00 | 74 | 1012.9 |
| 20260502031115 | 0 | 4 | 1.6 | 3.2 | 0.00 | 0.00 | 0.00 | 74 | 1012.9 |
| 20260502030005 | 0 | 277 | 3.2 | 3.2 | 0.00 | 0.00 | 0.00 | 74 | 1013.1 |
| 20260502025403 | 0 | 0 | 0.0 | 0.0 | 0.00 | 0.00 | 0.00 | 73 | 1013.1 |
| 20260502024503 | 0 | 292 | 0.0 | 3.2 | 0.00 | 0.00 | 0.00 | 73 | 1013.1 |
| 20260502023603 | 0 | 0 | 0.0 | 0.0 | 0.00 | 0.00 | 0.00 | 72 | 1013.2 |
| 20260502022916 | 0 | 265 | 0.0 | 3.2 | 0.00 | 0.00 | 0.00 | 72 | 1013.3 |